Location: Alvis C Story Elementary School
(33.0968°N, 96.6364°W)
Time: 17:56:55
(UTC+00:00)

H-2A R/B (2) - Pass Details

Date: 03 July 2022
Orbit: 427 x 34396 km, 28.9° (Epoch: 09 August)

Event Time Altitude Azimuth Distance (km) Brightness Sun altitude
Exits shadow 06:56:31 10° 168° (SSE) 19,312 8.6 -33.6°
Maximum altitude 15:15:31 65° 161° (SSE) 8,802 8.3 46.1°
Drops below altitude 10° 15:38:51 10° 85° (E) 5,492 7.2 51.0°
Sets 15:41:05 0° 82° (E) 5,788 7.1 51.5°
